SCP
0 0 0 0 0 0 0 0 0 0 0 0 0 0 0 0 0 0 0 0 0 0 0 0 0 0 0 0 0 0 0 0 0 0 0 0 0 0 0 0 0 0 0 0 0 0 0 0 0
0 0 0 0 0 0 0 0 0 0 0 0 0 0 0 0 0 0 0 0 0 0 0 0 0 0 0 0 0 0 0 0 0 0 0 0 0 0 0 0 0 0 0 0 0 0 0 0 0
0 0 0 0 0 0 0 0 0 0 0 0 0 0 0 0 0 0 0 0 0 0 0 0 0 0 0 0 0 0 0 0 0 0 0 0 0 0 0 0 0 0 0 0 0 0 0 0 0
0 0 0 0 0 0 0 0 0 0 0 1 0 0 0 0 0 0 0 0 0 0 0 0 1 1 1 0 0 0 0 0 0 0 0 0 0 0 0 0 0 0 0 0 0 0 0 0 0
0 0 0 0 0 0 0 0 0 0 1 1 1 0 0 0 0 0 0 0 0 0 0 0 1 1 1 1 0 0 0 0 0 0 0 0 0 0 0 0 0 0 0 0 0 0 0 0 0
0 0 0 0 0 0 0 0 0 1 1 1 1 0 0 0 0 0 0 0 0 0 0 0 1 1 1 1 1 0 0 0 0 0 0 0 0 0 0 0 0 0 0 0 0 0 0 0 0
0 0 0 0 0 0 0 0 0 0 1 1 0 0 0 0 0 0 0 0 0 0 0 0 0 0 0 0 0 0 0 0 0 0 0 0 0 0 0 0 0 0 0 0 0 0 0 0 0
0 0 0 0 0 0 0 0 0 0 0 0 0 0 0 0 0 0 0 0 0 0 0 0 0 0 0 0 0 0 0 0 0 0 0 0 0 0 0 0 0 0 0 0 0 0 0 0 0
0 0 0 0 0 0 0 0 0 0 1 1 1 0 0 0 0 0 0 0 0 0 0 0 0 0 0 0 0 0 0 0 0 0 0 0 0 0 0 0 0 0 0 0 0 0 0 0 0
0 0 0 0 0 0 0 1 0 0 1 1 1 1 1 0 1 1 1 0 0 0 0 0 0 0 0 0 0 0 0 0 0 0 0 0 0 0 0 0 0 0 0 0 0 0 0 0 0
0 0 0 0 0 0 1 1 1 1 1 1 1 1 1 1 1 1 1 0 0 0 0 0 0 0 0 0 0 0 0 0 0 0 0 0 0 0 0 0 0 -0 -0 0 0 0 0 -0 -0
0 0 0 0 0 0 1 1 1 1 1 1 1 1 1 1 1 1 1 1 0 0 0 0 0 0 0 0 0 0 0 0 0 0 0 0 0 0 0 0 -0 -0 -0 -0 -0 -0 -0 -0 -0
0 0 0 0 0 0 1 1 1 1 1 1 1 1 1 1 1 1 1 1 1 0 0 0 0 0 0 0 0 0 0 0 0 0 0 0 0 0 0 0 -0 -0 -0 -0 -0 -0 -0 -0 -0
0 0 0 0 0 1 1 1 1 1 1 1 1 1 1 1 1 1 1 1 1 0 0 0 0 0 0 0 0 0 0 0 0 0 0 0 0 0 1 0 -0 -0 -0 -0 -0 -0 -0 -0 -0
0 0 0 0 0 0 1 1 1 1 1 1 1 1 1 1 1 1 1 1 1 1 0 0 0 0 0 0 0 0 0 0 0 0 0 0 0 0 0 0 -0 -0 -0 0 0 0 0 0 0
0 0 0 0 0 0 0 0 0 1 1 1 1 1 1 1 1 1 1 1 1 0 0 0 0 0 0 0 0 0 0 0 0 0 0 0 -0 -0 -0 -0 -0 -0 -0 0 0 0 0 0 0
0 0 0 0 0 0 0 0 0 1 1 1 1 1 1 1 1 1 1 1 1 0 0 0 0 0 0 0 0 0 0 -0 -0 -0 -0 -0 -0 -0 -0 -0 -0 -0 -0 0 0 0 0 0 0
0 0 0 0 0 0 0 0 0 0 1 1 1 1 0 1 1 1 1 1 1 0 0 0 0 0 0 0 0 0 0 0 0 0 0 0 0 0 0 -0 -0 -0 -0 0 0 0 0 0 0
0 0 0 0 0 0 0 0 0 0 0 1 1 0 0 0 1 1 1 1 1 0 0 0 0 0 0 0 0 0 0 0 0 0 0 0 0 0 0 0 0 0 0 0 0 0 0 0 0
0 0 0 0 0 0 0 0 0 0 0 0 0 0 0 0 1 0 0 0 0 0 0 0 0 0 0 0 0 0 0 0 0 0 0 0 0 0 0 0 0 0 0 0 0 0 0 0 0
0 0 0 0 0 0 0 0 0 0 0 0 0 0 0 0 0 0 0 0 0 0 0 0 0 0 0 0 0 0 0 0 0 0 0 0 0 0 0 0 0 0 0 0 0 0 0 0 0
0 0 0 0 0 0 0 0 0 0 0 0 0 0 0 0 0 0 0 0 0 0 0 0 0 0 0 0 0 0 0 0 0 0 0 0 0 0 0 0 0 0 0 0 0 0 0 0 0
0 0 0 0 0 0 0 0 0 0 0 0 0 0 0 0 0 0 0 0 0 0 0 1 1 0 0 0 0 0 0 0 0 0 0 0 0 0 0 0 0 0 0 0 0 0 0 0 0
0 0 0 0 0 0 0 0 0 0 0 0 0 0 0 0 0 0 0 0 0 0 0 1 1 0 0 0 0 0 0 0 0 0 0 0 0 0 0 0 0 0 0 0 -0 0 0 0 0
0 0 0 0 0 0 0 0 0 0 0 0 0 0 0 0 0 0 0 0 0 0 0 0 0 0 0 0 0 0 0 0 0 0 0 0 0 0 0 0 0 0 0 0 0 0 0 0 0
0 0 0 0 0 0 0 0 0 0 0 0 0 0 0 0 0 0 0 0 0 0 0 0 0 0 0 0 0 0 0 0 0 0 0 0 0 0 0 0 0 0 0 0 0 0 0 0 0
0 0 0 0 0 0 0 0 0 0 0 0 0 0 0 0 0 0 0 0 0 0 0 0 0 0 0 0 0 0 0 0 0 0 0 0 0 0 0 0 0 0 0 0 0 0 0 0 0
0 0 0 0 0 0 0 0 0 0 0 0 0 0 0 0 0 0 0 0 0 0 0 0 0 0 0 0 0 0 0 0 0 0 0 0 0 0 0 0 0 0 0 0 0 0 0 0 0
0 0 0 0 0 0 0 0 0 0 0 0 0 0 0 0 0 0 0 0 0 0 0 0 0 0 0 0 0 0 0 0 0 0 0 0 0 0 0 0 0 0 0 0 0 0 0 0 0
0 0 0 0 0 0 0 0 0 0 0 0 0 0 0 0 0 0 0 0 0 0 0 0 0 0 0 0 0 0 0 0 0 0 0 0 0 0 0 0 0 0 0 0 0 0 0 0 0
Wind_Speed
4 4 1 3 6 4 3 4 2 2 4 6 11 13 12 8 5 6 3 11 14 12 9 13 15 15 15 15 14 14 14 13 13 13 13 13 12 11 11 10 9 9 9 8 8 8 8 7 7
2 1 3 5 5 1 5 4 1 3 8 9 11 12 11 9 9 8 6 11 14 12 8 11 15 14 15 14 14 13 13 13 12 12 12 11 11 10 9 9 8 8 7 7 7 7 6 6 6
2 0 3 4 3 4 4 1 6 7 8 7 7 8 8 5 6 5 8 13 13 10 8 11 16 15 15 14 13 13 13 13 12 11 11 10 9 9 8 8 7 7 6 5 5 5 5 4 4
2 4 4 3 4 6 5 4 4 7 8 8 10 9 6 4 5 9 13 14 14 10 8 11 15 15 14 14 13 13 12 12 11 11 10 9 8 7 7 6 6 5 5 4 4 4 3 3 2
4 4 3 2 4 4 2 4 5 8 6 9 13 10 6 5 13 14 13 13 13 10 7 10 14 14 14 14 13 12 12 11 10 9 9 8 7 6 5 5 4 4 4 3 3 3 2 1 1
4 4 3 2 4 4 2 3 9 11 10 9 12 10 5 6 12 12 12 11 11 11 8 8 13 14 14 13 12 11 11 10 9 8 7 6 5 4 4 4 3 3 3 2 2 1 1 1 1
3 3 2 3 2 3 3 2 7 9 8 4 7 9 6 6 9 11 12 11 10 9 8 6 7 9 12 12 11 10 10 9 8 7 6 5 4 3 3 3 3 3 3 3 3 2 2 2 3
5 3 1 2 1 2 0 3 6 8 7 5 4 9 8 8 10 12 12 11 9 7 6 6 6 6 6 7 10 10 9 8 7 7 6 5 4 3 3 3 3 3 3 3 3 3 4 4 4
3 3 2 3 2 2 1 5 4 6 9 6 5 7 11 14 14 13 12 9 8 7 5 5 5 5 5 5 7 8 8 6 6 4 4 3 1 0 1 2 4 4 3 4 4 4 5 5 5
4 3 5 4 3 3 2 5 5 7 9 9 10 11 13 13 14 14 12 10 8 7 5 4 5 5 4 4 4 3 3 3 3 2 2 1 1 0 0 1 2 2 3 4 4 5 5 4 2
4 5 4 1 2 4 5 5 4 9 8 10 16 14 12 13 12 12 10 9 8 7 6 4 4 4 4 3 3 2 2 2 2 2 2 1 1 1 1 1 1 2 2 2 3 3 2 2 2
1 3 2 1 2 4 5 5 6 6 8 12 15 15 13 12 10 10 10 8 7 6 5 4 3 4 3 3 3 2 2 2 2 2 2 2 1 1 1 1 1 1 1 1 2 2 2 2 2
3 4 1 3 7 8 11 9 9 9 11 13 14 14 13 11 9 8 9 8 7 6 4 4 4 4 4 3 2 3 2 2 2 1 1 2 1 1 0 1 1 1 1 1 1 2 2 2 2
3 2 2 5 7 6 12 7 8 7 10 12 13 12 11 11 10 9 8 8 7 6 4 3 4 4 4 3 3 2 2 2 2 1 1 2 1 1 1 0 1 1 1 1 1 2 2 2 2
2 2 2 1 5 5 10 8 5 9 10 11 11 11 12 10 9 9 8 7 7 5 4 3 3 4 4 3 3 3 3 2 2 2 2 2 2 1 1 0 1 1 1 1 1 2 1 2 2
3 2 1 3 3 3 8 6 6 9 12 10 11 11 10 8 8 8 8 7 7 5 4 3 3 4 4 3 3 3 3 3 2 2 1 2 2 2 2 1 1 2 1 1 1 1 2 2 2
4 1 2 4 2 3 6 7 9 10 12 11 10 11 9 8 7 6 7 7 6 5 4 4 3 4 4 3 3 3 3 3 2 2 2 2 2 3 2 1 1 2 1 1 1 1 1 1 2
2 1 2 5 4 5 6 7 10 10 12 11 10 9 8 8 6 6 7 7 6 5 5 4 4 3 3 3 3 3 3 2 2 2 2 3 2 3 2 1 2 2 2 2 2 1 1 1 1
4 3 5 7 5 5 7 9 10 9 9 10 10 9 8 7 6 6 7 6 6 5 5 4 4 3 2 2 2 2 2 1 1 2 2 3 2 2 2 2 2 2 1 2 2 1 2 1 1
5 5 5 4 3 5 6 6 7 9 11 12 12 11 10 8 7 7 6 5 5 4 4 4 3 3 2 2 1 2 2 1 1 2 3 3 3 3 2 2 2 2 2 2 2 1 1 1 1
6 6 5 3 3 5 6 2 3 4 5 7 8 9 9 10 10 9 7 5 5 4 4 3 3 3 3 3 3 3 3 2 3 3 2 2 3 3 3 3 2 2 2 2 2 1 1 1 1
5 6 4 4 5 1 4 3 3 4 4 6 8 8 9 9 9 8 8 6 6 4 4 3 3 3 3 3 4 4 3 2 1 1 1 2 3 3 3 2 2 2 2 2 2 2 1 0 1
5 3 4 4 5 4 3 3 3 3 5 8 8 9 9 10 11 10 8 7 6 5 4 3 3 4 4 3 4 4 3 2 1 2 3 3 3 3 3 3 2 2 2 2 2 2 2 1 1
3 6 6 6 6 3 2 2 3 3 6 7 9 10 10 10 10 9 8 8 6 4 4 4 4 4 3 4 4 4 4 3 3 3 2 2 2 3 4 3 2 2 2 2 2 2 3 2 1
7 7 5 5 4 3 2 2 3 3 3 6 9 10 10 11 10 9 9 8 6 6 5 4 4 3 3 4 3 4 4 3 3 2 2 1 2 2 3 3 3 2 3 3 3 3 3 3 2
2 8 7 4 3 3 2 0 2 3 2 4 7 9 9 9 8 8 8 6 6 6 5 5 4 3 2 3 3 3 3 2 2 2 1 1 0 1 2 3 3 3 4 4 3 2 3 3 2
3 2 6 7 2 1 2 1 2 3 5 6 8 9 9 8 7 7 6 5 6 5 5 5 5 3 3 3 3 3 3 3 2 2 2 1 1 1 3 3 4 4 4 4 3 3 3 2 2
4 5 6 5 4 1 3 3 4 3 3 4 6 7 7 7 6 5 6 6 5 5 4 4 4 4 3 3 2 3 2 2 2 2 2 2 2 2 3 3 3 4 4 4 3 3 3 3 2
3 3 4 4 5 5 3 5 4 6 7 7 7 8 8 8 7 6 5 5 5 5 4 4 4 4 3 3 3 3 2 3 3 2 2 2 2 2 3 3 3 3 4 3 3 3 3 3 3
3 3 5 5 3 4 4 4 2 5 6 7 7 8 8 7 6 6 6 5 5 5 4 4 3 4 3 3 3 3 3 3 3 2 2 2 2 2 2 3 3 3 3 3 3 3 3 3 3
Wind_Direction
296 284 84 56 53 47 269 255 207 66 55 63 84 91 90 76 102 125 118 125 127 131 135 134 131 128 125 122 119 117 113 109 104 100 98 95 94 93 94 95 96 96 97 97 95 94 93 92 91
292 308 55 59 82 44 274 250 129 117 129 113 77 78 78 72 81 102 115 128 129 130 131 134 132 128 126 125 123 121 119 116 112 107 104 102 99 98 99 100 100 98 97 98 97 94 93 91 89
285 56 83 78 128 188 227 227 115 102 104 95 82 61 69 80 90 100 135 133 123 122 126 134 132 129 128 128 127 126 125 122 119 115 112 110 107 105 104 104 104 101 100 101 100 97 93 91 86
48 46 53 78 247 237 215 213 149 113 76 69 96 71 62 53 92 119 132 128 120 118 123 133 133 131 131 131 130 129 128 126 124 122 120 118 116 114 113 112 110 108 109 109 108 105 100 91 79
66 75 58 329 265 267 224 199 151 101 94 86 90 86 61 47 106 118 124 124 120 119 119 130 131 132 132 133 132 132 131 130 127 126 127 126 125 122 120 121 121 122 124 125 121 117 113 94 15
55 73 88 264 274 301 291 146 107 102 109 102 97 102 83 103 113 119 116 115 118 122 119 125 132 134 134 135 135 134 133 132 130 129 129 129 128 127 127 131 137 142 148 153 153 156 176 236 283
118 104 185 236 276 296 276 106 106 117 107 96 117 107 118 120 120 118 113 111 111 116 117 114 123 129 133 134 134 134 133 133 133 132 130 131 131 136 149 157 170 180 188 193 201 216 238 260 277
153 98 306 280 248 262 231 91 94 105 104 109 100 123 146 152 128 112 107 105 107 107 112 114 115 121 127 133 135 134 131 132 133 133 134 137 143 158 175 184 202 212 220 227 235 245 256 263 274
118 79 258 243 187 217 106 97 75 78 99 88 71 108 134 134 123 112 108 103 107 107 108 115 118 121 126 133 137 137 137 136 130 127 135 126 102 126 205 223 215 228 237 250 257 265 272 270 276
116 155 233 220 178 163 104 107 120 100 89 91 92 96 116 121 119 119 122 121 118 118 115 116 122 127 129 133 120 119 126 114 103 101 108 105 94 23 57 305 256 259 263 274 279 280 282 280 284
165 196 222 238 144 123 95 71 77 118 111 132 130 127 120 116 115 118 122 125 126 126 121 117 122 125 126 118 120 107 98 99 93 88 88 85 71 25 28 44 327 315 314 311 304 300 291 284 273
219 253 198 197 103 86 91 95 67 83 123 130 127 126 119 115 116 120 122 121 118 116 116 118 119 121 115 113 120 117 111 106 96 83 82 87 75 55 44 37 338 340 328 312 313 303 293 288 273
223 252 232 122 88 88 86 84 89 87 107 112 113 112 118 115 110 107 109 107 107 107 108 110 108 109 106 108 117 109 112 117 113 89 75 77 75 66 54 17 8 345 331 322 324 305 298 297 292
208 190 154 127 106 101 100 86 85 111 119 112 113 115 116 112 113 107 104 103 104 105 105 107 101 103 104 107 108 109 110 112 96 71 55 69 83 90 99 39 3 332 318 304 293 296 300 292 298
146 106 32 118 123 140 103 69 102 140 128 119 120 120 115 114 113 115 120 115 108 109 107 104 117 107 107 106 106 105 102 98 86 71 51 52 58 69 76 52 359 325 328 337 341 339 342 353 344
32 62 38 272 145 163 105 124 155 148 135 132 133 127 123 119 119 122 118 113 109 105 97 95 113 101 101 101 101 98 95 94 85 70 56 60 55 52 60 37 348 333 350 5 4 18 0 354 342
22 85 240 284 243 150 118 153 172 163 148 146 143 140 138 128 118 113 109 112 109 109 103 86 82 92 100 102 100 95 88 85 84 75 59 50 47 52 60 30 342 344 4 4 354 15 7 343 344
235 231 246 241 242 133 133 162 171 171 154 151 148 147 143 137 137 125 112 108 102 102 99 85 81 81 91 94 95 83 73 68 67 63 50 49 41 44 47 28 357 358 12 3 355 348 350 308 323
198 224 244 247 219 141 150 162 176 170 158 154 153 152 155 150 141 124 114 114 105 90 84 83 80 70 77 91 98 99 89 65 52 59 52 45 41 44 50 25 9 5 18 354 347 347 356 340 11
224 230 254 277 194 139 145 159 173 174 178 168 161 162 159 148 139 131 121 115 104 99 90 78 76 76 70 85 111 119 116 94 72 44 41 39 39 32 43 36 18 6 12 6 360 4 360 337 21
252 214 221 212 57 81 110 100 158 176 147 154 158 161 158 160 153 144 137 127 115 107 102 95 82 77 68 67 79 77 64 47 31 28 28 23 35 37 34 33 31 16 25 5 349 1 28 319 326
240 224 179 146 110 143 132 170 216 179 162 167 168 165 166 157 148 147 145 138 136 129 114 100 88 74 67 76 90 95 97 85 40 18 32 21 28 29 26 26 28 28 24 8 346 11 352 338 313
215 187 129 116 108 72 34 128 253 162 187 197 186 176 169 160 155 154 152 144 138 135 124 108 94 77 69 77 97 100 87 77 50 47 48 30 15 16 17 22 23 22 18 3 356 2 4 358 269
117 67 55 56 70 67 262 148 254 212 212 192 182 172 164 158 154 150 145 135 132 135 120 104 98 83 78 79 85 97 97 87 72 58 48 23 6 2 5 13 13 10 9 3 357 360 7 357 341
73 79 42 15 23 256 248 130 252 273 225 178 173 163 156 153 151 150 147 144 142 136 127 122 110 93 82 83 81 91 100 100 99 98 81 49 15 354 348 2 4 2 2 8 13 12 4 358 8
120 126 146 184 209 271 348 152 275 314 67 116 138 144 144 146 148 148 146 143 143 141 136 126 119 109 89 86 78 74 82 89 91 91 92 77 35 325 344 8 14 12 17 21 22 17 2 10 14
113 120 153 129 120 76 295 266 315 31 70 95 117 135 142 145 142 140 139 140 142 141 142 137 133 118 100 94 88 75 73 80 77 63 52 42 21 353 8 20 21 14 18 19 20 21 1 6 9
126 139 90 105 140 217 272 252 232 204 150 128 128 131 131 130 130 132 136 144 149 149 142 132 130 126 116 103 93 87 80 84 78 64 45 34 22 13 16 20 18 11 14 16 18 10 0 15 358
48 66 101 117 150 155 217 260 229 191 174 163 156 147 143 142 141 139 137 141 140 134 130 131 129 121 115 109 93 82 70 67 60 48 36 36 23 18 28 22 22 19 16 10 15 12 9 13 359
137 168 145 145 203 165 169 255 312 162 158 151 146 144 141 139 135 133 134 133 130 134 136 139 136 129 127 118 102 89 75 68 58 38 19 30 23 15 27 28 30 23 21 13 16 12 11 9 7